Jefferson City, MO

10:54 AM CDT on July 20, 2017 (GMT -0500)
Jefferson City Memorial

Weather History for KJEF - February, 2013

Change the Weather History Date:

Wednesday, February 20, 2013

  Actual Average Record
Temperature  
Mean Temperature 24 °F -  
Max Temperature 28 °F 49 °F 75 °F (2016)
Min Temperature 19 °F 25 °F -3 °F (1936)
Degree Days  
Heating Degree Days 42    
Moisture  
Dew Point 9 °F    
Average Humidity 51    
Maximum Humidity 58    
Minimum Humidity 45    
Precipitation  
Precipitation 0.00 in - - ()
Sea Level Pressure  
Sea Level Pressure 30.32 in    
Wind  
Wind Speed 5 mph (NE)    
Max Wind Speed 12 mph    
Max Gust Speed -    
Visibility 10 miles    
Events      
Averages and records for this station are not official NWS values.
T = Trace of Precipitation, MM = Missing Value Source: NWS Daily Summary

Daily Weather History Graph

Daily Weather History Graph

Search for Another Location

Airport or City:

Trip Planner

Search our weather history database for the weather conditions in past years. The results will help you decide how hot, cold, wet, or windy it might be!

Date:

Astronomy

Feb. 20, 2013 Rise Set
Actual Time 6:52 AM CST 5:52 PM CST
Civil Twilight 6:25 AM CST 6:19 PM CST
Nautical Twilight 5:54 AM CST 6:50 PM CST
Astronomical Twilight 5:24 AM CST 7:21 PM CST
Moon 1:16 PM CST 3:11 AM CST
Length of Visible Light 11h 53m
Length of Day
10h 59m
Waxing Gibbous, 76% of the Moon is Illuminated
Feb 20
Waxing Gibbous
Feb 25
Full
Mar 4
Last Quarter
Mar 11
New
Mar 19
First Quarter

Hourly Weather History & Observations

Time (CST) Temp. Windchill Dew Point Humidity Pressure Visibility Wind Dir Wind Speed Gust Speed Precip Events Conditions
12:53 AM 23.0 °F 18.4 °F 8.1 °F 53% 30.34 in 10.0 mi NW 3.5 mph - N/A   Clear
1:53 AM 21.9 °F 15.7 °F 5.0 °F 48% 30.35 in 10.0 mi NW 4.6 mph - N/A   Clear
2:53 AM 21.9 °F 13.4 °F 5.0 °F 48% 30.32 in 10.0 mi North 6.9 mph - N/A   Clear
3:53 AM 19.9 °F - 5.0 °F 52% 30.33 in 10.0 mi Calm Calm - N/A   Clear
4:53 AM 19.9 °F 13.4 °F 5.0 °F 52% 30.34 in 10.0 mi NW 4.6 mph - N/A   Clear
7:53 AM 19.0 °F 13.9 °F 6.1 °F 57% 30.41 in 10.0 mi NW 3.5 mph - N/A   Clear
9:53 AM 21.0 °F - 8.1 °F 57% 30.42 in 10.0 mi Calm Calm - N/A   Clear
10:53 AM 23.0 °F 17.0 °F 8.1 °F 53% 30.42 in 10.0 mi ENE 4.6 mph - N/A   Clear
11:53 AM 24.1 °F - 9.0 °F 53% 30.39 in 10.0 mi Calm Calm - N/A   Clear
12:53 PM 25.0 °F 20.7 °F 9.0 °F 51% 30.36 in 10.0 mi ENE 3.5 mph - N/A   Clear
1:53 PM 26.1 °F - 9.0 °F 49% 30.34 in 10.0 mi Calm Calm - N/A   Clear
2:53 PM 28.0 °F 20.8 °F 10.0 °F 47% 30.29 in 10.0 mi East 6.9 mph - N/A   Scattered Clouds
3:53 PM 28.9 °F 22.8 °F 10.0 °F 45% 30.27 in 10.0 mi East 5.8 mph - N/A   Mostly Cloudy
4:53 PM 28.9 °F 21.9 °F 10.9 °F 47% 30.27 in 10.0 mi ENE 6.9 mph - N/A   Overcast
5:53 PM 28.0 °F 19.3 °F 10.9 °F 49% 30.26 in 10.0 mi ENE 9.2 mph - N/A   Overcast
6:53 PM 28.0 °F 20.0 °F 12.0 °F 51% 30.27 in 10.0 mi East 8.1 mph - N/A   Overcast
7:53 PM 27.0 °F 19.5 °F 12.0 °F 53% 30.27 in 10.0 mi ENE 6.9 mph - N/A   Overcast
8:53 PM 27.0 °F 18.7 °F 10.9 °F 51% 30.27 in 10.0 mi ENE 8.1 mph - N/A   Overcast
9:53 PM 27.0 °F 16.7 °F 10.9 °F 51% 30.27 in 10.0 mi East 11.5 mph - N/A   Overcast
10:53 PM 26.1 °F 16.8 °F 12.0 °F 55% 30.27 in 10.0 mi East 9.2 mph - N/A   Overcast
11:53 PM 25.0 °F 14.2 °F 12.0 °F 58% 30.26 in 10.0 mi East 11.5 mph - N/A   Overcast